Change the Weather History Date:

Thursday, May 23, 2013

  Actual Average Record
Temperature  
Mean Temperature 64 °F -  
Max Temperature 79 °F 63 °F 79 °F (2012)
Min Temperature 50 °F 36 °F 26 °F (2002)
Degree Days  
Heating Degree Days 1    
Growing Degree Days 14 (Base 50)    
Moisture  
Dew Point 55 °F    
Average Humidity 85    
Maximum Humidity 100    
Minimum Humidity 56    
Precipitation  
Precipitation 0.01 in - - ()
Sea Level Pressure  
Sea Level Pressure 29.82 in    
Wind  
Wind Speed 2 mph (South)    
Max Wind Speed 10 mph    
Max Gust Speed 20 mph    
Visibility 8 miles    
Events Fog , Rain    
Averages and records for this station are not official NWS values.
T = Trace of Precipitation, MM = Missing Value Source: NWS Daily Summary

Daily Weather History Graph

Daily Weather History Graph

Search for Another Location

Airport or City:

Trip Planner

Search our weather history database for the weather conditions in past years. The results will help you decide how hot, cold, wet, or windy it might be!

Date:

Astronomy

May. 23, 2013 Rise Set
Actual Time 5:08 AM EDT 8:14 PM EDT
Civil Twilight 4:34 AM EDT 8:49 PM EDT
Nautical Twilight 3:49 AM EDT 9:34 PM EDT
Astronomical Twilight 2:55 AM EDT 10:29 PM EDT
Moon 6:40 PM EDT (5/23) 3:56 AM EDT (5/23)
Length of Visible Light 16h 15m
Length of Day
15h 05m
Waxing Gibbous, 97% of the Moon is Illuminated
May 23
Waxing Gibbous
May 25
Full
May 31
Last Quarter
Jun 8
New
Jun 16
First Quarter

Hourly Weather History & Observations

Time (EDT) Temp. Dew Point Humidity Pressure Visibility Wind Dir Wind Speed Gust Speed Precip Events Conditions
12:52 AM 53.1 °F 51.1 °F 93% 29.88 in 10.0 mi Calm Calm - N/A   Clear
1:47 AM 51.8 °F 50.0 °F 94% 29.85 in 2.5 mi West 3.5 mph - 0.01 in   Partly Cloudy
1:52 AM 51.1 °F 50.0 °F 96% 29.86 in 1.2 mi WNW 3.5 mph - 0.01 in   Scattered Clouds
1:57 AM 51.8 °F 50.0 °F 94% 29.84 in 2.0 mi Calm Calm - N/A   Scattered Clouds
2:02 AM 50.0 °F 48.2 °F 94% 29.84 in 1.2 mi Calm Calm - N/A   Mostly Cloudy
2:05 AM 50.0 °F 48.2 °F 94% 29.84 in 0.8 mi Calm Calm - N/A   Mostly Cloudy
2:17 AM 51.8 °F 50.0 °F 94% 29.83 in 0.2 mi Calm Calm - N/A Fog Fog
2:32 AM 50.0 °F 48.2 °F 94% 29.83 in 0.5 mi Calm Calm - N/A Fog Fog
2:42 AM 51.8 °F 50.0 °F 94% 29.83 in 1.8 mi Calm Calm - N/A   Overcast
2:45 AM 51.8 °F 50.0 °F 94% 29.83 in 3.0 mi NNW 3.5 mph - N/A   Overcast
2:52 AM 51.1 °F 50.0 °F 96% 29.83 in 5.0 mi NNW 6.9 mph - N/A   Mostly Cloudy
3:07 AM 51.8 °F 51.8 °F 100% 29.83 in 10.0 mi Calm Calm - N/A   Mostly Cloudy
3:36 AM 53.6 °F 51.8 °F 94% 29.87 in 10.0 mi Calm Calm - N/A   Mostly Cloudy
3:52 AM 53.1 °F 51.1 °F 93% 29.84 in 10.0 mi ESE 4.6 mph - 0.00 in Rain Light Rain
4:04 AM 53.6 °F 51.8 °F 94% 29.84 in 10.0 mi South 3.5 mph - 0.00 in Rain Light Rain
4:16 AM 53.6 °F 51.8 °F 94% 29.84 in 10.0 mi SSE 3.5 mph - 0.00 in   Mostly Cloudy
4:22 AM 53.6 °F 51.8 °F 94% 29.83 in 10.0 mi Calm Calm - 0.00 in   Mostly Cloudy
4:52 AM 53.1 °F 52.0 °F 96% 29.83 in 10.0 mi Calm Calm - 0.00 in   Overcast
5:09 AM 53.6 °F 51.8 °F 94% 29.83 in 9.0 mi Calm Calm - N/A   Overcast
5:42 AM 53.6 °F 53.6 °F 100% 29.84 in 8.0 mi Calm Calm - N/A   Overcast
5:52 AM 54.0 °F 53.1 °F 97% 29.85 in 10.0 mi Calm Calm - N/A   Overcast
6:52 AM 54.0 °F 53.1 °F 97% 29.85 in 10.0 mi South 4.6 mph - N/A   Overcast
7:52 AM 55.9 °F 53.1 °F 90% 29.85 in 10.0 mi South 3.5 mph - N/A   Overcast
8:52 AM 60.1 °F 55.9 °F 86% 29.85 in 10.0 mi SSE 4.6 mph - N/A   Mostly Cloudy
9:01 AM 60.8 °F 55.4 °F 82% 29.84 in 10.0 mi Variable 3.5 mph - N/A   Scattered Clouds
9:52 AM 64.0 °F 57.0 °F 78% 29.83 in 10.0 mi Calm Calm - N/A   Clear
10:52 AM 66.9 °F 57.9 °F 73% 29.81 in 10.0 mi Calm Calm - N/A   Clear
11:52 AM 71.1 °F 60.1 °F 68% 29.80 in 10.0 mi North 3.5 mph - N/A   Mostly Cloudy
12:52 PM 75.0 °F 63.0 °F 66% 29.79 in 10.0 mi Calm Calm - N/A   Partly Cloudy
1:52 PM 78.1 °F 61.0 °F 56% 29.77 in 10.0 mi Calm Calm - N/A   Overcast
2:52 PM 75.9 °F 60.1 °F 58% 29.76 in 10.0 mi South 8.1 mph - 0.00 in   Overcast
3:52 PM 73.0 °F 61.0 °F 66% 29.76 in 10.0 mi South 5.8 mph - N/A   Overcast
4:52 PM 72.0 °F 62.1 °F 71% 29.77 in 10.0 mi SSE 9.2 mph - N/A   Overcast
5:52 PM 72.0 °F 62.1 °F 71% 29.75 in 10.0 mi SSE 9.2 mph - N/A   Mostly Cloudy
6:52 PM 72.0 °F 61.0 °F 68% 29.75 in 10.0 mi SSE 10.4 mph 19.6 mph N/A   Clear
7:52 PM 70.0 °F 60.1 °F 71% 29.77 in 10.0 mi South 8.1 mph - N/A   Overcast
8:52 PM 69.1 °F 60.1 °F 73% 29.76 in 10.0 mi South 5.8 mph - N/A   Mostly Cloudy
9:52 PM 68.0 °F 60.1 °F 76% 29.76 in 10.0 mi South 3.5 mph - N/A   Overcast
10:52 PM 64.9 °F 60.1 °F 84% 29.76 in 10.0 mi North 6.9 mph - 0.00 in   Overcast
11:52 PM 63.0 °F 59.0 °F 87% 29.75 in 10.0 mi NNW 4.6 mph - 0.00 in   Overcast